Volver al catálogo

NOAA 17 DEB

ActivoPO
NORAD 48715·DEBRIS·🇺🇸 United States

Lanzado Jun 24, 2002 desde Vandenberg Space Force Base

Loading…

Próximos Pases (próximas 24 horas)

TLE

ActualizadoSource: Space-Track

Época: Sep 14, 2026, 07:09 UTC

1 48715U 02032AY  26257.29813556  .00046819  00000-0  29356-2 0  9998
2 48715  98.7188 286.3892 0010756 183.1796 176.9363 15.09116378286901

Sigue NOAA 17 DEB en tiempo real con AllMySat

Download on the App Store